IRIDE FM8

导读

IRIDE FM8是由美国于2025年11月28日发射的卫星,属于IRIDE地球观测星座的组成部分。该星座卫星配备雷达与光学传感器,可实现全天候全时段对地观测,支持地表运动监测、土地覆盖分析、水资源与海岸带管理等任务。能高频次完成领土测绘,为应急响应和安全行动提供关键数据支撑,服务于全球环境监测与灾害管理需求。

Basic Information
目录编号:
66702
目录名称:
IRIDE-MS1-EAG2-8
国际标识:
2025-276AN
轨道中心:
EARTH
卫星名称:
IRIDE FM8
卫星全名:
IRIDE FM8
卫星状态:
在轨 (已飞行288 天)
发射日期:
2025-11-28 UTC
国别 :
意大利 (IT)
星等 :
--
This satellite is enrolled in the Space Conjunction Data Service (SCDS) and the current flight risk assessment level is: No High Risk
Orbit Information
数据来源 国际轨道数据
星历时间: 2026-09-12T10:53:46+0800
10小时前
查看轨道信息
半长轴: 6881.13km
偏心率: 0.0005702
轨道倾角: 97.413°
近地点辐角 85.232°
升交点赤经 327.282°
平近点角 274.957°
近地点: 499.069km
远地点: 506.917km
周期: 94.678分钟
每日圈数: 15.209437
Detailed Information
使用方式:
暂无
2D Orbit Map
3D Orbit Map
Orbit Altitude Analysis Chart
Orbit Inclination Analysis Chart
Orbit Comprehensive Analysis Chart
View Comprehensive Chart
Conjunction Data List
Event ID Objects TCA Miss Dist (km) Collision Risk Probability Collision Risk Index (CRI) Action
CDM_260905-231005-397806-670221
2026-09-05T
23:10:24+0000
0.610 km
远距离
1.248668E-4 高风险 0.77
CDM_260914-111006-104906-670221
2026-09-14T
11:10:04+0000
1.871 km
极远距离
2.612975E-6 低风险 0.43
Miss Distance Evolution Trend with All Objects
Collision Probability Evolution Trend with All Objects